W5SDC Weather Reports


time (UTC)temp
C
wind
direction
speed
KPH
gust
KPH
rain 1hr
cm
rain 24hr
cm
rain mn
cm
humidity
%
barometer
mb
20260505041519 22 189 14.5 24.1 0.00 0.00 0.00 89 1010.0
20260505041026 22 198 9.7 14.5 0.00 0.00 0.00 88 1010.0
20260505040532 22 176 14.5 20.9 0.00 0.00 0.00 88 1010.0
20260505040021 22 161 16.1 20.9 0.00 0.00 0.00 88 1010.1
20260505035528 22 208 14.5 22.5 0.00 0.00 0.00 88 1010.1
20260505035016 22 197 11.3 17.7 0.00 0.00 0.00 87 1010.1
20260505034522 22 175 11.3 19.3 0.00 0.00 0.00 87 1010.1
20260505034029 22 157 12.9 20.9 0.00 0.00 0.00 87 1010.1
20260505033518 22 184 9.7 12.9 0.00 0.00 0.00 86 1010.1
20260505033024 22 178 8.0 11.3 0.00 0.00 0.00 86 1010.1
20260505032531 22 153 9.7 17.7 0.00 0.00 0.00 86 1010.0
20260505032039 22 156 9.7 14.5 0.00 0.00 0.00 86 1010.0
20260505031546 22 185 12.9 17.7 0.00 0.00 0.00 85 1010.0
20260505031032 22 176 9.7 12.9 0.00 0.00 0.00 85 1010.0
20260505030520 23 176 9.7 12.9 0.00 0.00 0.00 85 1010.0
20260505030027 23 207 8.0 12.9 0.00 0.00 0.00 84 1010.1
20260505025556 23 183 11.3 14.5 0.00 0.00 0.00 84 1010.1
20260505025022 23 163 11.3 17.7 0.00 0.00 0.00 83 1010.0
20260505024529 23 186 11.3 17.7 0.00 0.00 0.00 82 1010.0
20260505024017 23 171 11.3 19.3 0.00 0.00 0.00 82 1010.0
20260505023544 23 175 11.3 17.7 0.00 0.00 0.00 80 1009.8
20260505023030 23 186 8.0 14.5 0.00 0.00 0.00 80 1009.8
20260505022519 23 162 9.7 17.7 0.00 0.00 0.00 79 1009.8
20260505022045 23 184 12.9 17.7 0.00 0.00 0.00 79 1009.8
20260505021532 23 179 11.3 16.1 0.00 0.00 0.00 79 1009.8
20260505021020 23 186 11.3 14.5 0.00 0.00 0.00 78 1009.7
20260505020526 23 184 11.3 14.5 0.00 0.00 0.00 78 1009.7
20260505020015 23 171 11.3 17.7 0.00 0.00 0.00 78 1009.7
20260505015521 23 196 11.3 14.5 0.00 0.00 0.00 77 1009.7
20260505015028 23 188 11.3 16.1 0.00 0.00 0.00 77 1009.7
20260505014516 24 187 11.3 12.9 0.00 0.00 0.00 76 1009.8
20260505014123 24 160 11.3 17.7 0.00 0.00 0.00 76 1009.8
20260505013609 24 188 11.3 17.7 0.00 0.00 0.00 75 1009.7
20260505013018 24 234 8.0 16.1 0.00 0.00 0.00 75 1009.7
20260505012524 24 175 8.0 14.5 0.00 0.00 0.00 74 1009.7
20260505012031 25 189 9.7 14.5 0.00 0.00 0.00 73 1009.7
20260505011539 25 181 9.7 17.7 0.00 0.00 0.00 73 1009.7
20260505011026 25 222 11.3 20.9 0.00 0.00 0.00 72 1009.7
20260505010553 25 186 11.3 16.1 0.00 0.00 0.00 72 1009.7
20260505010021 25 193 11.3 14.5 0.00 0.00 0.00 71 1009.7
20260505005527 25 201 12.9 17.7 0.00 0.00 0.00 71 1009.7
20260505005015 25 186 12.9 20.9 0.00 0.00 0.00 70 1009.7
20260505004522 25 179 14.5 17.7 0.00 0.00 0.00 70 1009.7
20260505004029 25 190 12.9 20.9 0.00 0.00 0.00 69 1009.6
20260505003517 26 207 16.1 20.9 0.00 0.00 0.00 68 1009.6
20260505003024 26 186 14.5 19.3 0.00 0.00 0.00 68 1009.6
20260505002530 26 183 17.7 25.7 0.00 0.00 0.00 68 1009.5
20260505002019 26 224 14.5 20.9 0.00 0.00 0.00 68 1009.5
20260505001525 26 171 14.5 25.7 0.00 0.00 0.00 68 1009.5
20260505001032 26 188 14.5 17.7 0.00 0.00 0.00 68 1009.5
20260505000520 26 196 16.1 20.9 0.00 0.00 0.00 67 1009.5
20260505000027 26 171 16.1 24.1 0.00 0.00 0.00 67 1009.6
20260504235515 26 220 12.9 20.9 0.00 0.00 0.00 67 1009.6
20260504235022 26 236 17.7 24.1 0.00 0.00 0.00 67 1009.7
20260504234528 27 199 16.1 24.1 0.00 0.00 0.00 66 1009.8
20260504234037 27 199 17.7 32.2 0.00 0.00 0.00 67 1009.8
20260504233523 26 174 19.3 29.0 0.00 0.00 0.00 67 1009.8
20260504233030 26 186 14.5 25.7 0.00 0.00 0.00 66 1009.8
20260504232518 27 186 17.7 27.4 0.00 0.00 0.00 66 1009.8
20260504232045 27 166 14.5 27.4 0.00 0.00 0.00 66 1009.8
20260504231531 27 183 17.7 20.9 0.00 0.00 0.00 66 1010.0
20260504231020 27 177 19.3 25.7 0.00 0.00 0.00 66 1010.1
20260504230527 27 184 19.3 27.4 0.00 0.00 0.00 65 1010.1
20260504230053 27 197 16.1 20.9 0.00 0.00 0.00 64 1010.2
20260504225546 27 201 20.9 30.6 0.00 0.00 0.00 64 1010.2
20260504225048 27 167 19.3 29.0 0.00 0.00 0.00 64 1010.4
20260504224536 27 195 14.5 22.5 0.00 0.00 0.00 64 1010.5
20260504224023 27 195 19.3 25.7 0.00 0.00 0.00 63 1010.4
20260504223529 27 187 12.9 20.9 0.00 0.00 0.00 63 1010.2
20260504223017 28 195 19.3 29.0 0.00 0.00 0.00 63 1010.2
20260504222524 28 173 14.5 22.5 0.00 0.00 0.00 62 1010.3
20260504222031 28 188 19.3 25.7 0.00 0.00 0.00 63 1010.4
20260504221519 28 169 14.5 17.7 0.00 0.00 0.00 64 1010.4
20260504221025 28 218 16.1 22.5 0.00 0.00 0.00 64 1010.5
20260504220532 28 184 14.5 25.7 0.00 0.00 0.00 63 1010.5
20260504220020 28 164 16.1 22.5 0.00 0.00 0.00 63 1010.5
20260504215547 28 170 19.3 22.5 0.00 0.00 0.00 63 1010.5
20260504215015 28 230 16.1 27.4 0.00 0.00 0.00 63 1010.6
20260504214522 28 175 16.1 24.1 0.00 0.00 0.00 63 1010.6
20260504214028 27 175 17.7 24.1 0.00 0.00 0.00 64 1010.7
20260504213517 28 170 14.5 20.9 0.00 0.00 0.00 63 1010.9
20260504213044 28 219 16.1 24.1 0.00 0.00 0.00 63 1010.9
20260504212550 28 198 16.1 24.1 0.00 0.00 0.00 62 1011.1
20260504212018 28 166 16.1 22.5 0.00 0.00 0.00 63 1011.1
20260504211525 28 193 17.7 25.7 0.00 0.00 0.00 63 1011.2
20260504211032 28 173 16.1 22.5 0.00 0.00 0.00 63 1011.4
20260504210520 28 185 14.5 22.5 0.00 0.00 0.00 63 1011.4
20260504210026 28 185 12.9 17.7 0.00 0.00 0.00 64 1011.5
20260504205515 27 194 17.7 24.1 0.00 0.00 0.00 64 1011.5
20260504205021 27 200 12.9 19.3 0.00 0.00 0.00 65 1011.6
20260504204528 27 187 16.1 20.9 0.00 0.00 0.00 65 1011.7
20260504204016 27 201 14.5 19.3 0.00 0.00 0.00 65 1011.8
20260504203523 27 192 16.1 20.9 0.00 0.00 0.00 65 1012.0
20260504203050 27 214 17.7 22.5 0.00 0.00 0.00 65 1012.0
20260504202518 27 216 14.5 27.4 0.00 0.00 0.00 66 1012.1
20260504202044 27 183 12.9 22.5 0.00 0.00 0.00 65 1012.2
20260504201531 28 202 14.5 20.9 0.00 0.00 0.00 64 1012.2
20260504201019 27 210 14.5 17.7 0.00 0.00 0.00 64 1012.4
20260504200526 27 166 14.5 19.3 0.00 0.00 0.00 64 1012.4
20260504200032 27 185 14.5 19.3 0.00 0.00 0.00 65 1012.7
20260504195521 27 177 14.5 24.1 0.00 0.00 0.00 65 1012.7
20260504195027 27 168 16.1 24.1 0.00 0.00 0.00 64 1012.7
20260504194516 26 202 12.9 19.3 0.00 0.00 0.00 66 1012.7
20260504194022 26 142 14.5 19.3 0.00 0.00 0.00 66 1012.8
20260504193529 27 188 14.5 19.3 0.00 0.00 0.00 65 1012.9
20260504193017 27 206 16.1 30.6 0.00 0.00 0.00 65 1012.9
20260504192524 27 192 14.5 24.1 0.00 0.00 0.00 65 1013.0
20260504192031 26 157 16.1 22.5 0.00 0.00 0.00 66 1013.1
20260504191519 26 192 16.1 27.4 0.00 0.00 0.00 67 1013.2
20260504191026 27 209 17.7 20.9 0.00 0.00 0.00 65 1013.4
20260504190532 27 200 16.1 24.1 0.00 0.00 0.00 66 1013.4
20260504190020 26 230 14.5 19.3 0.00 0.00 0.00 66 1013.4
20260504185527 26 244 14.5 19.3 0.00 0.00 0.00 68 1013.4
20260504185015 26 177 16.1 24.1 0.00 0.00 0.00 67 1013.5
20260504184522 26 233 16.1 22.5 0.00 0.00 0.00 68 1013.6
20260504184028 26 167 17.7 22.5 0.00 0.00 0.00 67 1013.7
20260504183517 26 190 19.3 29.0 0.00 0.00 0.00 67 1014.0
20260504183023 25 180 12.9 19.3 0.00 0.00 0.00 69 1014.0
20260504182530 26 192 14.5 19.3 0.00 0.00 0.00 68 1014.2
20260504182018 25 169 16.1 22.5 0.00 0.00 0.00 68 1014.2
20260504181524 26 191 14.5 25.7 0.00 0.00 0.00 67 1014.2
20260504181031 26 178 12.9 19.3 0.00 0.00 0.00 68 1014.2
20260504180519 25 220 12.9 17.7 0.00 0.00 0.00 69 1014.2
20260504180026 25 199 12.9 17.7 0.00 0.00 0.00 69 1014.3
20260504175533 26 186 14.5 19.3 0.00 0.00 0.00 69 1014.3
20260504175021 25 206 14.5 22.5 0.00 0.00 0.00 70 1014.4
20260504174528 25 226 14.5 20.9 0.00 0.00 0.00 72 1014.5
20260504174016 24 198 12.9 19.3 0.00 0.00 0.00 73 1014.6
20260504173523 24 196 12.9 22.5 0.00 0.00 0.00 72 1014.8
20260504173029 23 195 17.7 22.5 0.00 0.00 0.00 73 1014.8
20260504172518 23 192 16.1 20.9 0.00 0.00 0.00 73 1015.1
20260504172024 23 211 14.5 27.4 0.00 0.00 0.00 74 1015.1
20260504171531 23 187 16.1 24.1 0.00 0.00 0.00 74 1015.2
20260504171019 23 198 16.1 25.7 0.00 0.00 0.00 74 1015.3
20260504170546 23 199 14.5 19.3 0.00 0.00 0.00 74 1015.3
20260504151031 21 210 16.1 20.9 0.00 0.00 0.00 77 1015.8
20260504150519 21 203 17.7 25.7 0.00 0.00 0.00 77 1015.8
20260504141018 21 183 16.1 24.1 0.00 0.00 0.00 77 1015.8
20260504140525 20 175 11.3 25.7 0.00 0.00 0.00 78 1015.8
20260504130551 18 149 11.3 14.5 0.00 0.00 0.00 83 1015.8
20260504110525 15 224 8.0 12.9 0.00 0.00 0.00 88 1015.5
20260504100531 16 174 9.7 14.5 0.00 0.00 0.00 86 1015.6
20260504081529 16 155 8.0 9.7 0.00 0.00 0.00 82 1016.0
20260504081018 16 185 8.0 12.9 0.00 0.00 0.00 82 1016.2
20260504080525 16 184 8.0 12.9 0.00 0.00 0.00 82 1016.2
20260504050524 18 173 12.9 16.1 0.00 0.00 0.00 68 1018.2
20260504045519 18 171 11.3 14.5 0.00 0.00 0.00 66 1018.1
20260504045026 18 177 8.0 11.3 0.00 0.00 0.00 64 1018.3
20260504044532 18 187 9.7 14.5 0.00 0.00 0.00 63 1018.4
20260504044021 18 161 9.7 14.5 0.00 0.00 0.00 62 1018.4
20260504043527 19 174 9.7 12.9 0.00 0.00 0.00 62 1018.4